CZ-3C DEB, 40201

Orbit data source: Space-Track

CZ-3C DEB, 40201 is space debris in HEO originally from a launch on Fri, 24 Feb 2012 UTC launched from the Xichang Space Center, China (XSC). Debris objects in space refer to the collection of defunct objects orbiting the Earth. Examples of debris include non-operational satellites, rocket bodies, and fragments generated from explosions, collisions, or faulty payload assembly.

Loading next visibility...
Identifier
40201, 2012-008L
Orbit
HEO
Country
Flag of CNCN / PRC
Related business
Manufacturer
CALT
Mission
Spacecraft
Bus & Motor
Unknown
Mass
Unknown
Launch date (UTC)
2012-02-24 (14 years ago)
Launch vehicle
Unknown
Launch site
Xichang Space Center, China (XSC)
Object type
Payload
Rocket body
Debris
Shape & HBR
Unknown shape, 0.3 m
Radar Cross Section
Medium (>0.1 m² and <1 m²)

Expand to show TLE details & history
Last TLE update: 2 weeks ago

TLE from 2 weeks ago
0 CZ-3C DEB
1 40201U 12008L   26019.60658884 -.00000085  00000-0  51813-3 0  9996
2 40201  21.0909 125.6329 7078350 350.1678   1.1713  2.24687852 99856
Epoch: 2026-01-19T14:33Z
TLE epoch observation values (Epoch: 2026-01-19T14:33:29.275Z)
Latitude
0.00009°
Longitude
148.2206°
Altitude
834.847 km
Speed
9.712 km/s
True Right ascension
08h 22m 22s
True Declination
0° 00' 00"
Sunlit
Object was in full shadow at epoch
Visualization orbit readout
Latitude
Unknown
Longitude
Unknown
Altitude
Unknown
Speed
Unknown
Apparent Right ascension
Unknown
Apparent Declination
Unknown
Sunlit
N/A
Visualization observer readout
Local Sidereal Time
08:59:13
Azimuth
Unknown
Elevation
Unknown
Doppler factor
Unknown
Orbital elements
Apogee altitude
35,681.651 km
Perigee altitude
817.17 km
Semi-major axis
24,627.548 km
Eccentricity
0.70784
Inclination
21.0909°
RAAN
125.6329°
Arg. of periapsis
350.1678°
True anomaly
9.65477°
Mean anomaly
1.1713°
Eccentric anomaly
4.00116°
Mean motion
0.56158 °/min
Orbital period
641.05 mins
BSTAR
0.00051813
Loading maneuver chart data...
Computing Atmospheric mass density...
Loading historical data...
Loading historical data...
Loading historical data...
Loading historical data...
Loading historical data...
Loading historical data...
Loading historical data...

Documentation

Showing up to 5 results
|